Location: El Álamo
(40.2307°N, 3.9945°W)
Time: 03:33:59
(UTC+00:00)

Cosmos 773 Rocket - Pass Details

Date: 19 May 2025
Orbit: 742 x 772 km, 74.1° (Epoch: 22 June)

Event Time Altitude Azimuth Distance (km) Brightness Sun altitude
Exits shadow 21:51:34 46° 175° (S) 1,003 4.2 -21.4°
Maximum altitude 21:53:03 71° 106° (ESE) 790 3.8 -21.6°
Drops below altitude 10° 21:58:08 10° 23° (NNE) 2,263 6.8 -22.2°
Sets 22:00:30 0° 22° (NNE) 3,189 7.7 -22.4°
